Theta_e
292 286 286 288 289 285 285 285 285 286 286 285 284 283 283 282 284 285 286 287 287 286 286 287 286 286 287 286 288 288 286 284 284 284 283 283 284 284 284 284 284 284 284 286 287 285 285 285 284 284 284 283 283 283 283 283 284 285 285 286 286 287 287 287 286 286 286 285 285 285 284 284 284 285 286 286 286 286 286 286 286 287 288 287 286 287
290 288 288 289 290 286 284 284 286 287 285 286 284 282 283 282 282 287 286 287 286 286 282 282 283 286 287 288 287 287 285 285 284 284 283 283 284 284 284 284 284 284 285 285 284 284 284 283 284 283 283 285 282 283 283 283 284 284 285 285 285 286 286 286 286 286 286 285 284 284 283 283 283 283 283 283 284 285 286 285 285 286 286 285 285 286
286 288 292 290 289 284 287 286 286 286 286 285 283 281 281 283 283 286 286 286 287 286 284 284 283 285 287 288 287 286 285 287 287 286 285 284 283 284 284 284 283 283 283 283 283 284 282 283 283 282 282 282 282 282 282 282 283 284 284 285 285 285 285 286 286 286 285 285 285 284 283 283 282 283 284 284 285 285 284 284 284 285 285 285 285 285
288 284 288 288 285 288 286 286 286 286 285 283 283 282 282 283 282 280 283 284 286 285 283 283 284 286 288 289 289 288 287 287 287 285 285 285 284 284 284 284 283 282 282 282 282 282 282 282 281 281 281 281 282 282 282 283 283 284 285 283 284 285 285 285 286 287 285 285 285 284 283 283 282 282 284 283 284 283 283 283 284 284 284 284 284 284
290 292 289 285 286 287 286 286 286 285 284 282 283 282 282 283 283 282 282 283 284 285 284 284 283 282 285 286 287 284 284 285 283 284 283 284 284 285 284 283 282 282 281 282 281 281 281 281 282 282 282 281 281 282 282 282 283 285 283 283 284 284 284 284 285 284 284 284 283 282 282 282 282 282 282 281 281 281 282 282 282 283 284 284 284 284
286 286 287 287 287 287 286 285 285 285 282 279 282 286 286 284 284 283 281 283 280 279 280 280 278 275 278 282 284 282 282 282 282 283 282 284 283 283 282 282 282 283 281 282 282 281 281 281 281 280 280 280 280 281 282 282 284 283 283 283 283 283 284 284 284 284 284 282 281 280 279 278 278 278 278 278 278 279 280 280 281 282 283 283 283 283
288 287 287 287 287 286 286 284 283 286 282 281 284 283 285 284 283 282 281 282 276 274 282 281 276 276 279 281 282 280 281 282 281 282 283 283 283 282 282 281 282 282 281 281 281 280 280 280 280 280 279 280 281 281 282 282 283 283 283 283 283 283 283 284 283 283 283 281 281 280 279 278 278 277 278 279 280 279 280 281 280 281 282 282 282 282
286 287 284 284 286 285 284 282 282 286 283 281 283 281 283 283 283 282 283 282 279 279 282 281 279 275 277 281 284 282 282 281 280 281 282 282 282 281 281 281 281 281 280 282 281 280 280 280 280 280 280 280 281 281 282 282 283 283 282 282 282 283 283 282 282 282 282 280 280 279 279 279 278 278 278 279 279 280 280 279 279 280 281 281 282 282
286 283 285 285 284 283 283 283 284 286 284 282 284 282 284 282 282 282 282 280 279 278 276 279 281 276 275 278 280 280 279 279 279 280 281 282 282 281 281 281 281 281 281 281 281 280 280 280 279 280 280 280 280 281 282 282 282 283 282 282 282 282 281 281 281 282 281 281 280 279 278 278 278 278 278 279 279 279 279 278 279 279 279 280 281 282
287 287 285 286 284 284 284 282 284 287 285 284 283 283 282 283 282 282 280 279 276 275 274 279 279 273 278 278 278 278 278 279 280 281 282 282 282 281 280 280 280 280 280 280 281 280 280 279 279 279 280 280 280 281 282 282 282 282 281 281 281 280 280 281 280 280 280 279 280 278 278 277 277 277 277 277 277 277 277 277 277 278 279 280 280 280
288 290 289 287 286 285 282 284 283 285 285 284 281 283 280 279 279 278 277 276 272 269 277 280 279 279 275 277 279 277 279 282 283 281 282 282 281 280 280 280 280 280 280 280 280 279 280 279 279 280 280 280 280 280 281 281 281 281 281 280 280 280 280 280 280 279 279 279 279 278 277 277 276 276 276 276 276 276 276 276 276 277 277 278 278 278
285 287 287 284 287 284 284 284 283 282 283 284 281 280 281 280 275 272 268 273 270 271 274 276 278 279 271 276 279 283 281 281 284 282 282 282 281 280 280 280 280 280 280 280 280 279 279 279 279 279 279 279 280 280 280 280 280 281 280 280 279 280 279 279 279 279 278 278 278 277 277 276 276 276 276 275 274 275 275 275 275 276 276 276 277 278
283 283 282 286 288 287 284 283 283 281 281 281 279 276 275 271 271 270 269 271 269 274 274 274 276 275 276 282 280 282 284 283 283 285 284 283 281 280 280 280 279 280 279 279 279 279 279 278 278 278 278 278 279 280 279 280 280 279 279 279 279 279 279 279 278 278 278 277 277 277 276 276 277 276 275 275 275 275 274 274 274 274 274 275 275 275
283 281 283 284 286 287 285 283 280 282 280 280 280 275 274 270 266 270 270 267 268 276 275 275 277 274 280 281 285 286 286 285 284 284 284 283 281 280 280 279 279 279 279 279 279 278 278 278 278 278 279 279 279 279 279 279 279 279 279 278 279 278 279 278 278 278 277 277 277 276 276 276 276 275 275 275 275 274 274 275 274 274 273 273 273 274
276 276 282 284 284 285 287 285 283 279 280 280 279 281 278 273 273 274 272 274 279 278 274 276 271 269 271 277 278 279 278 278 283 281 280 282 281 281 279 278 279 278 278 278 278 278 278 278 278 279 279 279 279 279 279 278 278 278 278 278 278 278 278 278 277 277 276 276 276 276 276 276 275 275 275 275 275 274 274 274 273 273 273 273 273 274
281 281 281 284 283 286 285 284 281 281 281 280 278 278 275 278 279 277 273 271 275 273 273 270 274 275 279 278 278 277 277 277 278 278 280 279 279 279 278 278 278 278 279 278 278 278 277 278 278 279 279 279 278 278 278 278 278 278 278 277 277 277 277 277 277 276 276 276 276 275 275 275 275 276 275 275 275 274 274 273 273 273 273 273 273 273
280 277 280 282 282 284 282 281 284 283 279 279 279 276 279 280 281 278 274 274 274 274 275 275 275 279 278 279 276 278 277 277 276 277 278 278 279 277 278 278 278 278 278 278 277 277 278 277 278 279 278 278 278 278 278 278 278 277 277 277 277 277 277 276 276 276 275 275 275 274 274 274 274 274 273 273 273 273 273 273 273 272 272 273 273 273
280 281 281 281 284 283 280 281 282 280 282 280 274 278 280 281 281 276 273 274 273 271 276 273 276 280 276 279 275 275 275 275 275 276 277 278 277 277 278 278 278 278 278 278 278 278 278 278 279 278 278 278 278 277 277 277 277 277 277 276 276 276 275 275 275 275 275 274 274 274 274 274 274 273 273 273 273 273 273 272 272 272 272 272 272 273
283 280 280 278 280 281 282 283 283 282 283 280 278 282 280 275 274 275 272 272 270 272 273 278 276 279 280 281 273 274 275 275 275 275 276 276 276 277 277 277 278 277 277 277 277 278 278 278 278 277 278 277 276 277 277 277 277 276 275 276 276 275 275 275 275 275 274 274 274 274 274 273 273 273 273 273 273 273 272 272 272 271 271 272 272 272
284 281 280 278 279 280 281 281 278 279 282 281 282 279 281 279 278 274 277 277 278 274 275 277 279 279 280 281 280 278 277 277 276 275 276 277 277 277 277 277 277 277 278 279 278 278 278 277 276 276 276 275 276 276 276 276 275 275 275 275 275 275 275 274 274 274 273 273 273 273 273 273 273 273 273 273 272 272 271 271 271 271 271 271 272 271
283 281 276 278 278 280 277 279 280 280 277 277 277 275 276 276 278 278 277 276 277 274 275 275 274 281 280 282 281 281 279 278 277 276 277 277 277 277 278 278 278 279 278 278 278 277 277 277 276 275 274 275 275 275 276 275 275 275 275 274 274 274 273 273 273 273 273 273 272 272 272 272 272 272 272 272 272 272 271 271 272 271 271 271 271 271
279 279 280 276 276 277 280 282 284 283 284 279 280 278 280 276 273 274 275 279 277 277 274 274 275 283 282 280 284 282 281 279 279 278 278 277 277 277 277 278 279 278 277 277 276 276 277 276 276 275 274 274 274 274 274 275 274 274 274 274 274 273 273 272 272 272 272 272 272 272 272 272 272 272 272 272 272 271 271 271 271 271 271 270 270 271
283 278 278 278 279 281 281 281 280 282 282 281 282 281 281 281 279 278 274 277 274 277 279 277 275 279 280 282 281 282 281 280 279 279 278 277 277 277 277 278 278 278 277 277 276 276 276 276 276 275 275 274 274 274 273 274 274 274 273 273 273 272 272 272 272 272 272 271 271 271 271 271 271 271 271 271 271 271 271 271 271 271 270 270 270 270
290 279 274 281 281 279 277 278 278 278 281 280 280 279 280 279 281 281 282 281 276 277 274 274 272 278 280 281 281 280 279 280 280 279 278 277 277 277 277 277 277 276 277 277 276 276 276 275 274 274 274 274 274 273 273 273 273 273 273 273 272 272 271 271 271 271 271 270 270 270 270 270 270 270 270 270 270 270 270 270 271 271 270 270 270 269
279 280 279 274 273 279 277 276 278 277 277 275 276 280 281 283 282 280 279 279 275 280 277 275 272 279 282 279 278 278 277 278 278 277 278 277 277 277 277 277 276 277 276 276 276 276 275 274 274 274 274 274 273 273 273 273 273 272 272 272 271 271 271 271 271 270 270 270 269 269 269 269 270 270 270 270 270 270 270 270 270 270 270 270 269 269
284 279 280 273 274 272 273 270 270 271 276 276 275 277 280 280 280 277 276 277 274 278 278 276 276 283 279 277 277 277 277 277 277 278 277 278 277 277 277 276 276 277 277 276 275 275 275 275 274 273 273 273 273 272 272 272 272 272 271 271 271 270 270 270 270 270 269 269 268 268 268 269 269 269 269 270 270 270 270 270 270 270 270 269 268 269
277 279 282 284 281 279 282 283 280 278 275 274 275 277 278 279 281 282 280 278 276 279 277 279 280 281 282 279 276 276 276 277 277 276 276 276 276 277 277 277 277 277 276 276 275 275 274 274 273 273 272 272 272 272 271 271 271 271 270 270 270 270 269 269 269 269 268 268 268 267 268 268 269 269 269 269 269 269 269 269 269 269 269 269 268 268
274 278 281 282 284 285 287 286 284 283 282 282 280 278 278 278 279 279 278 276 282 276 274 281 282 280 281 284 282 277 278 278 278 277 276 276 277 277 276 277 279 276 275 275 274 274 274 274 273 272 272 271 272 271 271 271 270 270 269 269 269 269 269 269 268 268 267 267 266 267 267 268 268 268 269 269 269 268 268 268 268 268 268 268 267 267
280 281 285 282 281 285 286 286 287 283 283 284 285 284 281 277 278 277 278 281 281 277 276 282 284 281 283 285 285 282 280 279 278 277 277 277 277 276 276 276 276 275 275 274 274 274 274 273 272 272 271 271 271 270 269 269 269 269 269 269 268 268 268 268 267 266 266 266 266 266 267 268 268 268 268 268 268 268 267 267 267 267 267 267 267 267
279 281 284 282 282 283 284 284 284 283 284 284 283 284 284 280 278 279 280 281 281 280 282 282 282 282 285 286 285 284 283 281 280 278 277 276 276 276 276 276 275 275 274 274 274 274 273 272 272 271 271 270 270 269 269 269 269 268 268 267 267 267 267 266 265 265 265 265 266 266 267 267 267 267 267 267 266 266 266 266 266 266 266 266 266 267
283 281 285 282 281 282 284 284 283 282 282 281 283 284 283 283 282 281 280 281 281 281 281 281 281 280 285 288 286 285 281 279 277 276 276 276 276 276 276 275 275 275 274 274 273 273 272 272 271 271 270 269 269 268 268 268 268 267 267 267 266 266 266 265 264 264 264 264 265 266 266 266 266 266 266 265 265 265 264 264 264 265 265 265 266 266
282 279 277 278 279 280 283 281 281 280 280 280 280 281 282 282 280 282 280 282 280 278 280 279 277 278 284 286 283 282 279 277 277 276 275 276 276 276 276 275 275 274 274 273 273 272 272 271 271 270 269 268 268 267 267 267 267 266 265 266 265 265 265 264 264 264 264 264 265 265 265 265 265 264 264 264 263 263 263 263 263 263 264 264 265 266
281 278 279 277 277 278 280 277 277 277 277 276 278 281 282 282 283 284 284 284 283 283 279 277 278 283 285 280 277 277 279 278 277 276 276 276 276 276 276 275 275 274 273 273 273 272 272 271 270 269 268 267 267 267 266 266 265 265 265 265 265 264 263 263 263 263 263 264 264 264 265 264 263 262 262 262 262 262 262 262 262 263 263 263 264 265
280 281 280 282 277 279 275 276 276 275 272 277 284 285 284 281 281 280 281 282 283 283 282 284 284 286 284 281 280 278 277 277 278 278 279 277 276 276 276 275 274 274 273 273 273 272 271 271 270 269 268 267 267 267 267 266 265 265 265 264 263 263 262 262 262 263 263 263 263 264 263 263 262 261 261 261 261 261 261 261 261 262 263 263 264 265
280 281 280 282 277 277 274 275 273 271 275 283 276 280 284 284 284 282 283 284 284 284 283 283 283 284 285 284 280 278 278 277 277 277 277 278 278 277 275 274 273 273 273 272 272 271 270 270 269 268 267 267 266 266 265 265 264 264 263 263 262 262 262 262 262 262 262 262 263 262 262 261 261 260 260 261 261 261 261 261 261 262 263 263 264 264
280 280 280 278 278 274 270 272 269 273 283 284 283 279 282 281 282 280 279 281 282 283 283 281 283 284 284 284 279 277 277 275 275 275 276 276 277 276 274 274 273 273 272 272 271 270 269 268 268 267 266 266 265 265 264 264 263 262 262 262 261 261 261 261 261 261 262 261 261 261 261 260 259 259 259 260 260 260 260 261 261 261 263 264 264 265
284 282 281 277 282 275 277 274 276 282 281 284 285 279 279 279 277 278 277 282 286 283 282 282 283 284 283 282 276 275 275 275 274 274 275 275 276 276 275 275 274 273 273 272 271 269 269 268 267 266 265 264 264 264 263 263 262 261 260 260 260 260 260 260 260 260 260 260 260 260 260 259 259 259 259 259 259 260 261 261 261 262 264 264 265 265
285 282 283 280 278 282 278 276 275 275 273 280 281 279 282 284 283 282 280 278 284 282 284 283 282 282 281 275 275 274 276 274 271 273 275 274 275 274 274 274 273 273 271 270 269 268 267 266 265 265 264 263 263 263 263 262 261 260 259 259 259 259 259 259 259 260 259 259 259 259 259 259 259 259 259 259 260 260 261 262 263 264 265 265 265 266
284 284 283 282 279 278 276 273 274 273 277 285 277 279 279 280 281 280 276 274 281 281 282 282 282 281 278 275 274 275 274 271 273 275 275 274 273 274 273 272 271 271 270 269 268 267 266 265 265 264 263 263 262 262 261 260 260 259 258 258 258 258 258 258 258 258 258 258 259 258 258 258 259 259 259 260 261 262 262 263 264 264 265 265 266 266
280 279 279 276 277 278 277 275 273 278 278 278 275 277 278 280 282 280 272 276 280 280 280 281 280 279 276 276 275 275 274 272 274 276 276 274 274 273 273 271 270 269 268 267 266 265 265 264 263 262 262 261 262 261 260 260 259 258 258 258 258 257 257 257 258 258 258 258 258 258 258 258 258 259 260 261 261 262 263 263 263 264 264 265 265 266
276 275 278 274 277 278 278 276 278 278 284 278 277 277 279 281 280 271 271 283 278 277 277 279 279 277 276 275 276 274 277 278 277 276 276 274 273 272 271 271 270 269 267 267 267 267 263 263 263 262 261 262 261 260 259 259 258 257 257 257 257 256 257 258 258 257 257 257 257 257 257 258 259 259 260 262 262 263 262 263 263 263 263 263 264 265
274 275 273 277 275 275 277 275 275 278 283 279 279 279 281 280 271 275 283 280 278 277 276 279 278 277 277 277 277 278 275 273 275 275 274 273 273 272 270 269 268 267 267 267 266 264 262 262 261 261 260 260 260 259 259 258 256 256 256 256 255 256 257 257 257 256 256 256 256 256 257 258 259 260 261 262 262 261 261 262 263 262 262 263 264 264
276 273 271 274 276 274 275 273 271 270 281 282 279 278 282 279 281 283 278 279 280 279 277 277 277 277 278 277 278 275 273 274 274 274 274 273 272 270 269 268 267 266 265 263 263 264 262 261 260 260 260 260 259 259 259 257 255 255 255 255 256 257 257 256 256 255 255 255 255 256 257 258 259 260 261 261 261 261 261 261 261 261 262 262 263 264
282 274 273 276 279 271 273 270 272 280 282 282 280 277 280 285 285 279 281 278 278 277 278 277 277 278 278 278 276 275 274 274 274 274 273 272 271 270 269 268 266 265 264 263 262 262 261 260 260 259 259 258 258 257 258 256 255 255 254 254 256 257 256 255 255 254 254 254 255 256 257 258 259 260 261 261 261 261 260 260 260 261 261 262 262 263
284 282 283 279 282 277 276 280 283 279 281 282 285 283 283 285 280 281 282 281 278 278 277 278 278 278 279 278 276 275 274 274 274 273 272 272 270 269 268 267 266 265 263 262 261 261 260 259 257 257 256 258 257 257 256 256 254 254 253 255 256 255 255 254 253 253 253 254 255 256 257 258 259 260 260 260 260 260 260 259 260 259 261 261 262 262
285 287 283 282 281 285 286 286 281 279 280 281 284 281 281 283 279 280 280 279 279 279 279 279 279 278 278 278 276 275 275 275 273 272 272 271 269 268 267 266 264 263 262 261 260 260 258 257 256 255 255 256 257 257 256 255 255 252 254 255 255 255 254 253 252 252 253 254 255 256 257 258 259 259 259 260 260 260 259 259 259 259 260 261 261 262
284 283 283 283 283 282 278 288 285 283 281 281 282 282 279 282 281 280 280 281 280 280 279 280 279 279 279 278 278 276 276 275 274 273 272 270 269 267 266 265 263 262 261 260 260 258 257 255 255 254 254 253 256 256 256 254 255 255 255 254 254 254 253 251 251 252 253 253 255 256 258 258 258 258 259 259 259 259 259 259 259 260 260 261 261 261
281 286 282 283 282 282 285 282 280 286 284 282 282 282 281 280 280 280 281 281 281 281 280 280 280 279 279 278 278 277 276 275 274 272 271 270 269 267 266 264 263 261 261 260 259 257 256 255 255 254 254 254 256 256 255 254 254 254 253 254 254 252 251 251 251 252 252 253 255 256 257 257 259 258 257 258 258 258 258 259 260 260 260 260 261 262
285 284 279 283 281 284 286 286 281 280 282 282 282 283 284 282 281 280 280 280 280 279 279 279 280 279 279 279 279 278 275 274 274 273 271 270 268 267 265 264 262 261 260 259 257 256 256 254 254 254 254 254 255 255 253 253 253 253 253 254 252 252 250 251 251 252 252 254 255 256 258 257 257 257 257 257 258 258 259 258 259 260 261 263 264 265
283 281 284 282 279 280 281 284 285 278 281 283 281 282 283 283 281 280 280 279 279 279 278 278 278 279 280 279 278 277 275 274 273 272 271 269 268 266 264 262 260 259 259 258 257 255 255 254 253 253 253 254 255 253 252 252 252 252 253 253 252 251 250 250 251 251 252 254 255 256 257 256 256 256 257 257 257 257 257 261 265 264 262 262 267 270
286 286 284 281 282 282 286 288 288 287 288 289 285 283 283 283 281 280 279 279 279 279 279 278 276 276 276 276 278 277 276 274 272 272 270 268 266 265 263 261 260 259 258 257 255 254 254 254 253 253 252 253 253 252 251 251 252 252 252 253 252 251 250 250 250 251 252 253 254 256 256 256 256 256 256 257 257 256 256 256 258 264 267 267 267 268
Wind_Speed
1 3 2 5 7 7 3 4 4 3 4 3 1 2 7 5 10 4 4 7 1 2 10 11 9 10 12 8 11 13 8 7 6 10 10 9 9 9 8 8 8 7 6 6 7 5 3 4 3 1 1 3 4 4 4 4 5 6 7 7 10 9 10 9 9 9 10 11 12 10 9 10 11 12 14 10 10 11 11 13 14 16 13 13 16 16
3 4 6 6 7 8 5 4 2 1 2 3 3 3 8 3 9 8 4 1 1 3 5 1 4 11 14 10 8 6 9 14 14 13 12 12 11 10 10 9 9 7 2 3 3 2 1 3 3 2 3 4 5 4 4 5 7 6 6 6 7 7 8 8 8 9 8 8 8 10 11 11 11 10 12 12 9 10 10 12 14 14 14 15 14 14
2 5 8 5 3 3 0 0 1 3 3 0 3 2 4 9 5 11 4 2 0 1 10 7 7 11 12 10 7 10 15 15 17 18 19 18 15 12 10 10 9 5 6 6 6 2 1 2 2 3 3 3 1 2 3 3 4 4 5 6 5 6 7 7 8 8 9 9 8 9 10 12 13 10 9 10 11 11 13 13 12 13 14 14 13 13
7 3 7 1 5 2 0 1 1 0 0 3 1 1 9 4 3 8 3 3 1 1 6 5 10 10 12 13 16 12 15 12 11 10 9 13 17 16 14 11 10 8 8 7 7 5 1 1 2 3 2 2 2 2 3 4 5 4 5 4 5 7 6 7 7 8 8 9 9 9 10 12 11 13 13 12 9 9 11 13 11 11 11 12 14 14
8 4 1 5 2 4 2 0 2 1 7 3 4 5 7 7 6 6 5 4 4 6 2 9 11 7 11 16 13 2 3 5 4 5 6 8 6 8 6 6 8 10 8 8 5 3 2 3 1 0 1 1 2 3 4 4 3 2 4 4 5 6 6 5 7 8 8 10 10 11 11 9 11 10 10 12 13 12 10 10 10 13 12 12 13 14
9 4 2 4 1 1 2 1 4 5 4 5 6 11 10 7 7 5 3 5 5 5 4 4 11 2 4 7 11 3 0 5 4 10 12 12 8 8 9 9 7 7 6 8 6 6 4 3 0 2 3 3 3 4 3 2 1 1 3 4 5 4 4 6 7 9 9 9 10 12 14 15 14 14 11 10 14 16 16 17 16 15 15 15 14 12
3 1 1 4 4 2 1 3 3 5 6 1 7 3 6 6 4 3 4 4 4 2 2 3 3 13 2 3 6 4 5 9 2 9 11 10 10 9 9 9 8 8 5 2 3 4 4 2 0 2 3 2 1 2 2 2 1 2 3 4 4 4 4 5 6 8 8 9 9 10 11 11 12 14 13 12 11 11 13 14 16 15 14 14 15 15
2 0 4 2 3 3 2 4 4 8 5 5 1 3 4 1 3 3 0 2 6 0 7 3 4 10 13 9 9 9 10 10 7 9 10 11 10 10 9 8 8 8 6 7 6 6 4 3 2 1 2 1 2 2 2 2 2 2 3 4 5 4 5 5 6 7 7 9 9 11 10 9 10 11 15 16 15 14 13 14 14 14 13 13 14 15
4 3 3 3 1 3 6 5 3 7 6 4 2 2 1 2 3 1 2 5 1 3 10 3 4 4 8 6 2 2 7 8 13 13 13 13 12 11 10 9 9 8 7 8 6 6 5 4 3 4 3 2 2 2 2 3 2 2 3 4 4 5 4 5 5 6 6 7 9 9 9 11 10 10 11 12 13 15 14 14 13 11 15 13 11 9
2 2 7 7 6 6 5 3 5 10 4 2 2 1 1 0 0 1 3 2 3 2 11 10 7 5 15 6 1 1 3 11 13 17 16 15 14 11 10 9 9 7 6 5 7 6 5 4 4 4 2 2 2 3 3 3 2 2 2 3 4 5 4 4 5 5 5 6 8 9 10 12 13 12 12 11 13 13 12 14 14 15 10 11 11 11
2 3 5 4 6 4 4 1 2 0 1 2 4 1 3 3 3 2 3 2 2 3 15 11 10 9 11 5 9 8 11 12 12 6 7 9 9 8 10 11 9 8 6 6 5 5 5 4 3 0 2 2 2 4 3 3 3 2 2 3 4 5 5 4 4 4 5 6 6 8 10 12 14 15 14 15 16 14 14 14 17 14 13 10 11 11
2 1 1 2 3 3 4 3 3 1 1 1 1 1 6 5 5 2 3 3 1 9 6 5 11 10 8 7 6 10 4 4 11 14 18 18 16 13 12 10 9 8 7 7 7 5 4 3 2 0 2 2 4 4 4 3 2 3 4 4 6 6 6 5 5 5 6 6 7 7 9 11 12 12 12 16 17 15 17 16 14 14 13 12 12 10
3 6 2 3 3 8 3 3 1 4 3 3 2 3 2 6 6 4 2 3 6 9 2 2 5 4 14 18 4 10 15 9 7 13 17 19 16 14 12 11 8 8 7 7 6 5 3 4 4 2 4 4 4 4 4 3 3 4 4 5 6 8 6 7 5 6 6 7 8 9 10 10 10 11 12 12 14 15 14 13 15 14 13 15 12 10
8 1 1 3 3 4 7 6 1 0 1 5 3 3 1 3 1 6 5 3 6 6 2 4 2 9 9 10 13 20 17 9 10 11 10 14 18 18 15 10 8 7 7 8 6 5 5 5 4 4 5 4 4 4 2 3 4 4 4 5 6 9 7 7 7 7 7 7 8 8 9 9 9 11 11 11 11 14 11 10 15 14 15 14 12 16
2 6 5 6 3 3 7 6 8 4 7 8 2 6 6 5 2 6 2 7 11 11 1 3 2 8 1 6 1 7 7 6 7 5 5 11 15 14 9 7 8 7 6 7 6 6 6 5 4 5 4 5 4 1 2 3 4 4 5 5 7 10 9 8 8 8 9 9 8 8 8 9 9 10 11 10 11 12 12 14 12 14 12 13 14 13
8 7 4 1 1 3 8 1 5 6 3 2 2 4 4 8 5 8 5 4 7 8 9 3 8 5 8 1 2 1 1 1 2 6 10 10 10 10 9 10 9 8 9 6 6 6 4 4 4 4 5 4 1 1 3 4 4 5 5 5 7 8 10 9 9 9 9 10 8 8 9 10 10 10 10 11 11 11 12 12 13 15 14 13 14 12
1 5 1 3 2 1 2 2 2 3 3 2 4 5 7 1 4 5 3 0 1 1 17 3 10 7 6 5 3 0 2 1 3 6 10 12 12 8 10 9 9 9 8 7 6 5 4 4 5 5 4 1 1 2 4 5 5 5 6 6 8 9 8 9 9 10 10 11 11 10 10 10 10 10 11 11 13 15 13 12 14 12 14 15 12 14
4 7 1 4 5 0 1 1 1 2 3 7 2 8 1 2 2 3 5 3 1 5 11 3 10 16 5 13 4 2 4 4 4 6 9 10 8 10 10 10 9 9 8 7 6 5 5 5 6 4 1 0 0 2 4 5 5 5 5 6 8 10 11 11 10 10 10 11 12 12 12 11 10 10 11 11 14 14 14 14 11 11 13 12 12 12
5 8 3 2 1 2 1 1 2 0 1 3 3 2 2 4 2 0 3 6 2 7 8 6 3 18 12 12 2 5 9 10 8 6 8 10 10 11 9 9 8 7 6 5 5 5 6 7 4 1 0 1 2 3 4 5 5 5 5 5 6 9 10 11 10 10 10 9 9 10 12 13 12 11 11 12 13 12 14 15 13 13 13 14 14 13
1 3 5 1 2 1 1 4 7 4 1 1 0 2 0 1 5 3 6 3 2 10 6 13 5 21 4 7 11 12 16 13 11 9 13 17 14 12 10 9 9 9 8 7 7 6 7 5 2 1 1 2 4 4 4 4 4 5 5 6 7 8 9 10 11 11 12 11 11 13 13 13 11 11 12 14 13 13 12 13 15 14 14 14 12 13
3 3 7 0 4 2 3 5 9 11 8 2 1 3 1 2 2 1 1 5 6 4 8 11 12 18 4 6 10 12 14 15 17 17 16 13 12 10 10 10 10 9 8 7 7 6 4 2 1 1 3 3 4 4 4 4 5 5 5 6 7 10 11 11 11 10 11 11 13 14 14 14 13 14 13 13 14 13 14 12 13 13 13 13 13 13
2 2 9 3 2 7 7 3 8 11 13 10 12 11 13 6 4 2 12 4 4 6 8 8 14 23 3 1 9 8 9 13 15 18 17 12 11 12 10 10 10 9 7 7 6 3 2 2 2 3 3 3 4 4 4 5 4 5 6 7 8 9 9 11 12 10 12 11 12 14 13 14 13 13 13 15 14 15 14 14 13 13 13 13 15 12
5 3 1 8 10 11 6 2 1 2 0 4 9 9 10 8 4 6 12 6 1 10 5 3 7 24 9 3 4 6 6 12 15 15 12 10 11 11 10 10 8 8 7 7 4 4 4 3 4 4 4 4 4 5 5 4 4 5 7 8 8 9 11 10 11 11 11 12 13 14 14 12 13 13 15 16 15 15 15 15 14 10 10 14 11 14
4 2 1 9 5 2 3 2 4 3 1 1 6 3 6 12 16 15 13 1 5 2 5 6 11 21 2 0 1 3 4 10 13 15 13 10 9 10 11 9 9 6 5 5 4 3 3 4 4 3 3 4 4 4 5 4 4 5 6 8 9 10 11 11 11 11 12 13 14 13 14 14 14 15 16 16 13 16 16 16 14 13 16 15 14 14
3 5 6 5 6 7 2 3 2 2 2 5 5 9 14 12 8 4 4 2 2 18 7 6 20 20 1 2 2 3 4 7 8 6 10 11 9 10 10 9 7 7 6 5 5 5 4 3 3 4 4 4 4 4 3 4 5 6 7 7 9 10 10 10 11 12 13 13 16 15 13 14 15 15 15 15 14 16 16 17 19 16 16 16 16 19
5 5 8 6 10 10 12 5 5 6 11 5 3 5 10 14 16 4 8 5 14 6 10 13 20 21 4 2 1 2 4 6 6 8 6 10 12 11 9 8 8 7 8 6 6 4 5 4 3 4 4 4 3 3 4 4 5 6 7 8 8 10 12 11 10 11 12 13 15 16 17 16 15 15 16 16 15 19 21 19 15 16 16 18 19 19
3 2 8 13 12 16 17 12 1 7 5 6 8 13 15 14 16 13 6 10 18 11 12 25 22 22 22 7 6 6 7 10 9 7 10 8 9 10 9 9 9 8 8 8 7 5 2 3 6 6 4 3 3 3 3 5 6 7 7 9 8 9 11 12 12 13 13 14 15 16 16 16 16 15 16 19 18 16 16 16 20 20 17 16 19 18
2 4 13 13 17 20 19 19 6 5 10 11 9 13 13 15 14 16 16 23 12 2 19 27 16 18 28 18 14 10 11 10 9 11 10 8 10 12 10 9 8 7 5 4 4 4 6 7 6 4 3 2 3 3 4 4 5 7 8 10 10 10 10 10 12 14 15 15 16 14 15 16 16 18 16 14 16 18 17 20 18 19 17 18 18 18
6 11 14 7 17 20 21 19 11 6 8 12 17 19 13 14 14 21 28 25 13 15 25 30 20 19 24 20 11 14 16 15 15 14 15 14 10 7 9 10 10 8 6 7 7 7 8 6 3 3 1 2 3 4 5 6 7 7 8 8 9 10 11 11 12 14 14 14 14 15 15 16 14 12 16 21 16 16 21 18 16 18 19 17 19 17
2 10 11 7 15 16 19 17 11 14 13 14 22 27 19 13 21 26 24 22 22 24 28 27 27 31 26 25 8 11 10 12 12 8 6 8 12 13 12 11 10 9 9 10 9 8 6 3 3 2 1 2 3 4 6 8 9 8 10 11 10 11 11 11 12 13 14 15 15 15 16 15 16 19 18 14 19 21 19 18 18 17 18 21 19 18
6 9 5 4 10 16 19 10 7 10 11 17 27 32 17 17 20 21 20 23 24 24 28 28 29 29 28 22 9 7 7 5 5 9 14 14 13 14 14 12 10 10 10 8 8 5 3 3 3 1 1 3 4 5 7 7 8 9 10 10 11 11 10 11 13 13 13 15 15 15 16 15 17 15 16 20 17 17 18 17 16 18 19 17 19 19
6 6 4 2 8 14 12 6 4 2 4 16 29 32 16 19 21 20 19 25 20 25 26 21 18 23 28 18 4 7 8 10 12 12 11 11 14 14 14 12 10 10 9 8 6 3 4 5 1 2 3 4 5 5 5 7 8 8 9 9 10 11 11 11 12 13 14 14 15 15 15 15 15 17 18 16 17 17 17 17 18 17 17 18 18 17
8 4 5 4 8 16 4 8 5 3 4 14 31 26 23 25 25 21 21 22 22 23 16 17 23 26 23 2 3 5 10 12 11 12 11 10 13 15 14 13 11 9 9 7 6 6 5 1 1 2 3 2 4 5 5 6 8 8 9 10 11 11 11 12 12 14 15 15 15 16 15 15 16 18 16 16 17 17 17 18 17 17 18 19 19 17
6 8 8 7 9 8 5 4 6 4 5 26 4 3 12 18 21 24 24 25 26 17 19 22 23 21 8 7 11 9 10 11 13 13 16 17 14 12 9 10 10 10 7 7 6 5 3 2 2 2 2 3 3 4 5 5 6 8 9 10 10 11 12 12 13 13 14 15 15 16 16 16 17 17 17 17 17 17 17 16 18 15 17 17 17 17
12 11 11 5 4 8 4 3 1 7 25 4 1 3 9 15 17 22 26 26 22 18 21 22 25 24 21 14 9 7 9 7 7 10 7 9 14 14 13 11 10 9 9 8 6 4 3 3 3 2 3 4 4 4 5 6 6 9 10 10 12 10 12 12 13 14 14 15 15 15 15 16 17 17 16 17 18 19 18 19 17 17 15 15 16 16
12 12 5 2 3 3 2 6 4 21 10 14 8 5 0 1 1 3 15 22 21 19 17 21 27 26 21 16 6 5 6 4 4 1 6 8 10 12 12 11 10 9 9 7 6 5 4 3 4 5 4 3 3 4 5 6 7 9 10 9 10 11 11 11 12 13 14 15 16 16 16 18 19 18 18 18 18 19 19 20 15 16 16 15 14 13
12 7 7 10 7 12 10 10 21 12 22 29 24 5 9 8 9 10 13 21 20 14 19 20 24 23 16 10 6 6 8 6 4 2 2 6 6 8 13 11 11 10 7 6 6 6 5 7 7 5 3 3 3 4 5 6 8 9 10 10 10 10 11 11 12 13 14 15 16 16 15 15 16 17 17 17 19 20 20 19 17 15 12 13 13 14
11 16 10 10 8 12 14 13 6 7 12 24 0 2 2 6 6 4 3 15 22 9 15 19 23 20 11 6 8 10 9 7 4 9 7 4 5 8 3 7 5 6 6 7 6 6 7 7 7 4 2 2 3 4 5 7 8 8 9 10 10 11 12 11 13 14 14 15 15 15 16 16 15 16 18 18 20 21 18 16 15 13 13 14 15 15
6 2 4 14 7 5 8 11 12 11 18 14 4 0 3 6 10 7 3 14 9 11 14 17 17 12 9 12 10 12 9 8 12 10 9 9 7 7 10 7 7 7 6 6 7 8 8 7 5 2 2 3 5 6 7 7 7 8 9 9 11 10 11 12 13 14 16 16 16 16 16 16 17 16 19 20 20 19 19 15 16 17 16 16 15 16
10 8 5 6 12 13 12 9 12 8 15 3 5 2 4 9 9 4 5 14 1 8 6 10 11 8 9 12 15 12 12 9 14 10 13 13 11 9 11 11 9 8 6 6 8 8 8 5 4 4 4 5 6 5 7 6 6 7 9 9 10 10 11 12 14 15 15 16 16 15 16 15 17 17 17 19 20 18 18 17 17 17 17 16 15 15
8 1 10 19 18 15 14 11 6 10 12 7 10 7 6 5 7 3 13 16 4 5 4 7 9 8 11 13 13 11 15 7 3 10 16 12 10 7 4 5 8 8 8 8 8 8 7 5 5 4 3 4 5 3 4 5 6 7 7 9 9 11 12 13 13 15 15 15 15 16 16 15 15 18 19 17 17 17 17 16 17 17 17 17 15 15
2 4 3 5 9 16 12 13 13 11 10 8 10 17 11 7 2 19 11 6 12 7 6 9 9 10 13 16 14 11 4 4 8 13 16 15 14 10 9 9 8 7 7 8 9 7 6 5 4 2 3 3 6 4 5 5 7 7 8 8 10 11 12 12 13 13 14 15 15 16 16 16 16 15 15 16 17 18 17 16 16 15 16 14 15 17
13 11 10 12 5 2 2 8 2 10 8 24 16 8 10 9 17 7 6 0 4 10 11 7 10 10 14 12 9 7 9 9 14 16 15 13 12 12 11 11 11 10 9 8 7 6 6 5 3 3 4 4 4 5 5 5 7 8 7 9 11 11 12 12 12 14 14 15 15 15 16 16 17 16 14 15 17 18 18 17 16 16 14 15 15 15
9 6 4 8 9 9 11 11 14 18 8 23 24 16 16 25 7 8 7 7 3 5 9 8 7 11 12 13 11 9 10 11 8 12 11 10 9 10 8 7 8 9 8 7 8 7 4 5 3 3 4 3 4 4 4 4 7 8 9 10 10 12 11 11 12 13 14 14 14 15 15 15 16 14 14 15 16 15 17 17 16 14 12 14 14 14
18 18 14 12 11 11 13 18 13 8 15 21 19 4 12 19 5 9 7 10 10 7 5 8 10 9 11 12 13 14 10 11 15 15 17 13 12 12 12 10 10 10 8 8 7 5 4 5 3 2 2 5 4 3 3 3 5 8 10 9 10 11 12 12 13 13 13 14 14 14 14 14 14 14 14 15 15 16 16 16 16 14 13 13 14 13
0 11 7 3 8 15 12 11 4 3 8 15 15 4 4 8 3 5 8 8 8 10 11 11 10 12 10 12 14 8 13 12 12 11 8 11 12 9 9 10 9 8 9 7 6 5 4 4 4 3 3 4 3 3 3 3 4 6 9 9 10 10 11 12 13 13 13 13 13 14 14 15 13 13 13 14 13 13 14 14 14 13 13 13 12 12
7 3 5 9 2 7 11 20 19 15 8 15 19 11 2 6 11 9 8 9 9 9 10 6 11 13 14 13 16 15 11 14 14 12 11 11 11 12 12 11 8 9 9 7 6 6 5 4 3 2 3 3 3 3 3 4 4 5 7 8 9 10 11 11 12 12 12 13 13 12 12 13 13 13 13 12 12 12 14 14 12 13 13 12 12 13
5 12 6 14 9 12 24 3 5 8 16 17 14 14 15 9 10 9 7 7 10 11 12 10 9 10 11 12 13 14 13 12 14 11 10 10 11 11 10 11 11 8 6 7 7 6 5 4 4 2 1 1 3 2 3 4 5 5 6 7 7 9 10 10 10 11 12 13 12 11 11 11 16 15 12 13 13 12 14 14 13 13 13 14 14 11
5 15 10 14 13 17 21 15 5 5 6 10 15 15 14 13 12 11 8 7 9 11 7 6 10 13 13 14 11 12 12 11 13 15 13 9 10 10 10 10 9 9 9 9 6 5 5 4 3 2 1 0 1 2 3 4 5 5 7 7 7 8 9 10 10 11 11 11 10 10 10 11 11 12 12 12 12 12 11 11 14 14 13 15 12 16
9 13 4 8 10 16 18 23 16 8 12 15 20 24 20 15 13 13 9 9 11 12 11 11 5 5 8 10 12 12 14 11 9 11 13 12 11 11 11 11 9 9 8 6 6 6 5 5 4 2 1 0 0 2 3 4 4 4 6 6 6 7 8 9 9 9 9 9 9 9 10 10 11 11 12 12 13 14 13 16 21 16 15 14 25 32
18 20 13 15 18 20 22 28 17 20 21 14 14 17 14 13 14 15 16 15 13 14 15 14 11 7 5 5 8 13 12 13 12 10 11 9 9 10 12 13 12 9 9 8 8 5 5 4 3 2 1 0 0 1 3 3 4 5 6 6 7 7 7 8 8 7 8 9 9 11 11 10 10 11 11 12 12 13 12 14 14 21 27 28 29 30
Wind_Direction
101 77 313 273 256 216 215 178 188 210 190 236 155 199 253 236 281 273 251 261 179 256 243 242 242 254 262 224 211 203 182 203 188 191 191 189 186 188 189 186 191 188 195 189 179 184 156 114 91 77 28 10 355 355 346 349 1 19 19 13 6 356 355 349 345 347 350 348 340 337 333 327 331 324 320 316 317 314 315 317 316 316 314 324 324 318
68 23 281 232 229 191 200 208 205 349 154 210 247 259 281 212 262 271 282 339 334 172 287 262 242 257 258 254 226 195 176 206 199 197 194 190 193 191 186 188 190 198 191 154 192 189 110 75 55 30 30 34 20 333 343 9 8 11 17 15 356 353 347 346 348 346 345 348 340 331 329 328 322 325 321 317 314 310 312 315 316 314 314 313 310 314
8 267 256 249 206 142 58 134 188 206 244 261 205 261 322 272 244 284 302 303 263 67 264 282 263 259 262 261 237 189 201 210 205 194 191 182 188 190 189 187 190 183 187 190 189 174 171 97 59 36 20 354 290 305 356 0 14 18 20 0 353 343 346 346 348 349 343 337 336 337 326 329 320 312 303 300 307 310 312 313 310 306 305 307 308 309
341 293 248 218 127 138 352 64 131 64 65 207 230 298 253 238 16 305 295 4 324 178 287 287 272 268 268 260 249 216 203 218 212 204 198 191 184 185 187 182 176 184 183 185 182 177 137 132 74 23 352 295 308 344 360 13 12 19 7 349 345 348 350 344 344 343 335 331 328 328 326 322 315 312 310 306 298 296 302 304 302 295 297 301 302 304
229 231 139 106 115 155 210 13 149 158 273 271 193 223 260 278 245 202 272 318 289 297 238 285 276 255 235 252 259 261 264 224 191 171 190 215 209 183 176 181 177 176 178 187 184 190 163 79 61 274 256 282 353 349 6 359 357 13 344 332 345 345 340 336 338 340 336 333 335 334 326 317 311 309 314 317 318 317 308 303 314 313 305 299 299 298
281 276 131 98 85 97 140 250 216 149 263 312 229 203 230 242 271 278 328 12 3 320 325 47 321 258 283 237 260 283 252 221 199 182 197 195 192 188 186 188 195 188 186 169 181 179 155 145 278 319 325 345 351 1 330 285 287 336 324 341 342 340 336 338 341 342 343 343 340 337 335 333 329 321 323 323 324 323 325 322 318 312 309 304 299 297
227 351 108 173 152 140 159 202 243 153 199 36 271 195 226 236 237 284 326 29 296 236 303 58 236 288 112 268 243 226 219 228 194 207 203 192 193 193 188 185 183 186 199 184 142 141 135 184 148 311 315 310 335 287 271 279 288 311 333 334 328 332 335 341 342 346 342 339 336 330 323 316 315 315 313 313 310 308 308 309 309 306 304 304 303 300
118 15 59 64 119 148 206 278 245 162 131 235 248 112 109 121 251 256 357 193 249 303 281 225 162 271 286 245 246 212 216 220 211 222 209 201 196 194 190 184 186 190 178 175 173 174 170 169 183 234 256 257 223 249 268 283 283 321 328 333 331 337 345 340 338 340 347 333 328 322 315 308 307 308 307 314 314 310 307 305 304 306 304 303 298 291
148 191 179 147 119 163 218 210 191 159 155 220 217 147 278 222 250 249 261 266 256 15 292 242 146 265 246 270 336 126 221 238 231 215 211 205 202 193 188 189 193 190 185 169 166 171 185 202 222 215 241 234 239 251 258 266 268 290 313 323 326 331 338 330 335 336 333 327 317 312 309 310 307 303 303 306 307 308 309 302 301 300 304 300 293 298
276 186 208 166 147 227 225 240 174 158 215 284 149 146 30 39 99 224 252 288 328 70 273 259 172 215 272 199 61 359 261 251 232 217 210 205 200 190 184 194 197 194 183 178 165 175 186 206 217 215 209 239 230 242 254 267 267 274 285 317 323 320 326 320 326 322 316 312 311 308 310 310 310 312 308 307 306 306 307 303 304 304 298 300 302 302
246 329 156 138 198 209 153 85 143 317 120 122 63 9 347 20 22 37 62 100 50 231 243 237 184 183 285 194 188 159 215 211 221 215 210 210 207 194 194 191 191 183 176 177 174 183 201 215 222 237 199 227 278 271 265 259 245 266 321 323 327 315 317 317 309 309 304 306 302 303 307 308 309 312 311 311 308 308 306 306 306 306 302 299 297 293
351 8 163 267 72 105 106 88 17 75 31 116 47 65 352 319 5 34 340 43 140 264 250 224 194 188 207 276 225 224 247 212 193 196 198 201 198 189 194 194 187 177 172 172 172 197 223 279 296 67 263 247 257 270 265 249 271 335 339 337 324 318 314 311 307 304 299 300 300 298 302 304 305 307 307 308 305 308 307 306 304 305 301 296 293 294
273 214 243 334 208 130 115 86 328 16 3 71 69 34 28 283 6 313 40 290 188 234 193 109 139 315 232 244 219 238 241 237 208 205 200 197 184 187 192 189 184 174 160 166 181 199 222 212 234 242 240 257 267 257 258 308 342 336 333 327 318 311 312 306 302 298 298 301 303 305 304 302 302 300 299 297 299 301 302 302 301 304 303 304 302 298
277 301 282 229 21 216 131 138 235 353 239 111 156 161 78 328 18 263 252 240 300 269 236 93 114 248 270 276 224 239 241 227 217 222 208 180 176 185 185 180 171 169 166 176 183 195 203 211 212 208 218 237 251 254 289 335 339 324 319 317 311 305 308 305 305 301 302 300 298 297 296 298 300 297 295 294 294 297 294 295 298 300 299 300 298 298
328 335 266 160 227 167 178 176 179 165 158 200 128 143 190 147 203 282 266 271 281 284 288 258 58 233 153 236 254 248 282 264 221 206 166 170 177 174 164 157 161 166 182 180 190 194 204 213 198 206 223 241 240 262 341 336 320 320 314 316 310 307 309 308 303 306 305 302 299 293 290 293 295 293 293 290 292 293 296 297 295 294 295 292 295 293
211 227 257 309 256 153 174 200 126 102 67 173 168 80 89 228 130 224 206 247 304 330 304 158 212 196 211 265 287 290 347 36 96 126 138 151 158 159 163 169 174 177 182 192 189 210 222 206 207 216 234 236 249 1 333 324 317 315 309 306 301 301 306 308 308 306 304 302 296 289 290 291 289 289 288 289 289 288 288 288 290 292 291 291 292 291
71 268 274 320 61 154 190 146 191 131 211 222 108 205 209 161 147 278 352 183 38 116 262 165 278 255 312 266 244 24 108 67 103 145 153 163 167 161 170 174 178 181 185 188 195 200 210 216 223 223 225 255 33 352 326 308 304 299 303 305 304 304 302 303 306 307 309 305 303 298 294 292 292 289 288 289 291 292 290 285 286 288 289 290 287 288
213 257 235 126 214 285 203 128 80 25 145 103 198 239 209 152 100 127 239 321 183 230 273 131 261 280 90 287 66 94 191 202 179 171 171 168 166 173 181 180 182 184 188 189 192 190 198 202 217 230 235 188 222 288 299 294 291 292 294 299 304 308 310 309 309 308 305 305 304 303 301 299 293 289 287 289 292 294 293 289 288 285 287 286 287 287
111 299 228 301 75 315 345 149 349 312 21 146 186 248 124 240 285 350 83 274 263 253 275 262 236 264 219 247 115 222 208 202 198 187 175 190 189 189 184 188 187 185 181 188 199 198 211 215 222 217 240 285 260 271 271 279 286 293 299 296 297 301 305 307 310 306 301 297 298 300 303 301 298 293 292 288 286 284 285 288 286 286 285 288 290 288
53 225 304 326 128 322 12 104 206 203 330 79 16 330 242 111 229 150 198 217 118 275 297 280 5 281 133 211 196 206 206 193 175 188 202 200 191 184 185 184 184 187 187 191 192 203 213 224 218 201 203 250 266 278 278 277 288 297 299 302 304 302 303 306 308 308 306 307 303 302 300 296 293 293 295 294 292 289 284 285 290 289 288 288 287 287
198 112 259 84 308 103 186 187 210 162 180 181 134 257 347 206 226 86 303 165 197 245 251 286 297 273 147 194 176 200 201 188 175 193 205 201 192 192 184 180 186 187 189 191 193 207 221 240 268 260 236 244 265 267 277 287 292 291 298 303 307 309 310 310 307 306 305 309 307 305 302 300 301 300 296 292 290 289 288 285 286 285 283 287 287 289
124 163 223 106 282 213 237 217 195 176 181 177 175 206 197 160 245 240 260 103 213 205 250 241 262 269 191 205 197 187 201 183 186 194 203 190 188 190 185 188 183 184 193 186 200 191 222 242 248 259 270 269 273 281 293 295 300 308 305 305 310 308 309 310 310 309 307 306 302 300 298 299 300 299 298 296 297 295 293 291 288 287 287 285 288 287
163 145 154 226 207 221 220 245 350 209 303 193 170 223 176 201 152 201 262 234 76 233 236 274 303 267 117 179 191 189 183 183 185 200 203 181 188 188 187 187 191 179 178 186 185 201 213 205 204 216 231 251 264 276 285 288 291 299 306 313 313 311 308 308 305 308 308 305 303 300 299 297 297 299 299 299 298 296 298 297 293 285 285 291 288 287
113 179 224 268 304 8 61 345 22 41 126 322 259 187 152 203 198 207 227 174 197 213 161 237 236 265 63 80 203 184 190 180 191 198 185 176 181 188 181 184 182 175 176 184 195 204 208 198 212 234 257 267 269 274 283 285 295 306 311 315 314 309 309 311 311 309 308 304 301 301 300 300 300 300 302 298 296 297 302 302 299 300 299 298 297 291
121 246 155 286 335 314 316 1 340 351 52 222 206 206 211 221 225 248 70 126 278 239 175 208 254 265 108 314 52 101 140 180 192 190 170 174 188 181 183 180 176 174 175 192 202 211 211 214 239 240 243 251 260 269 281 302 313 319 315 315 313 309 311 313 313 311 309 308 305 305 303 301 304 302 299 299 301 301 304 304 303 299 298 300 299 296
180 181 145 198 225 263 270 223 227 232 216 213 234 232 220 210 215 140 243 211 235 234 168 232 252 258 256 326 209 215 192 193 200 182 190 183 176 179 179 179 172 168 187 195 203 197 209 222 234 241 243 249 265 287 306 316 316 316 312 311 315 315 317 315 312 306 307 308 307 308 308 306 305 304 303 302 304 307 307 304 302 306 302 302 301 301
188 198 198 210 204 229 242 262 150 113 86 192 228 206 216 212 211 213 228 232 232 241 241 243 242 271 264 234 247 211 213 198 187 195 190 191 190 179 173 171 173 180 188 195 190 200 212 249 241 233 241 256 281 301 312 316 317 316 316 315 320 320 315 314 313 312 310 309 307 303 302 305 304 305 308 307 306 307 305 304 307 305 306 303 300 300
84 224 228 219 225 235 245 251 224 156 243 241 231 231 211 207 194 203 211 233 215 231 256 255 240 248 263 258 229 205 216 214 204 193 197 190 183 177 175 173 178 185 194 174 178 195 221 231 234 237 254 285 306 314 310 312 317 323 326 324 323 321 316 314 316 314 312 308 303 300 298 303 308 310 305 307 309 306 310 310 308 308 308 307 299 296
170 224 239 193 238 244 247 252 250 234 231 255 259 258 227 196 197 207 225 232 216 217 243 261 256 245 255 254 233 204 207 205 201 201 198 186 168 159 163 173 181 187 184 185 203 210 220 230 229 249 278 309 320 326 324 325 332 332 325 319 316 317 318 319 317 312 308 306 303 301 301 301 304 303 311 309 305 312 308 306 307 306 302 302 303 293
123 245 249 183 243 244 251 252 250 251 261 264 262 256 243 205 210 219 230 232 226 236 243 255 264 263 264 261 231 222 201 203 205 188 159 153 173 174 174 178 182 182 184 195 207 215 220 224 240 259 296 328 334 337 339 338 333 331 325 320 320 319 320 324 316 313 310 306 303 301 302 301 309 312 310 309 311 311 314 311 309 307 308 303 295 296
165 254 223 197 248 256 255 249 241 241 247 261 261 257 243 238 237 230 234 244 242 245 250 252 258 268 267 261 249 234 177 175 145 161 179 181 171 176 178 180 182 184 191 200 211 217 216 230 234 245 343 352 353 346 346 335 325 324 319 318 318 317 321 323 314 312 310 304 303 304 304 306 311 313 313 314 310 309 307 307 306 306 301 299 300 289
188 260 67 114 240 263 264 233 237 237 273 258 265 264 243 233 243 236 229 233 227 236 242 250 258 258 259 269 222 214 175 169 181 180 174 184 182 174 180 180 181 186 192 203 209 204 218 222 219 27 12 1 349 352 347 333 328 323 319 320 319 318 319 317 313 310 306 305 306 307 309 310 312 315 314 312 310 312 308 307 308 302 295 292 294 294
190 156 188 168 227 250 277 102 105 127 284 281 255 254 240 230 229 237 239 239 232 229 239 243 240 242 253 267 204 209 186 196 181 181 182 182 181 178 179 179 181 182 189 193 199 207 206 197 99 60 26 16 359 349 340 335 324 323 323 321 318 318 318 317 314 311 308 308 310 310 312 313 314 313 312 312 310 308 307 307 304 306 300 293 289 290
192 194 223 166 226 249 86 106 115 146 235 250 350 170 180 212 216 227 239 236 234 208 222 229 242 255 267 237 231 215 191 195 193 200 182 173 177 183 177 174 175 179 187 193 198 192 187 135 97 80 68 40 8 348 334 330 318 319 324 319 320 323 319 317 314 311 309 310 312 314 314 315 315 311 309 309 310 307 306 305 303 296 299 293 290 285
185 197 219 165 219 240 120 97 153 223 246 299 324 317 188 203 204 214 231 239 239 226 232 246 253 255 250 243 221 202 193 202 200 177 174 182 167 167 169 171 172 177 185 192 194 187 153 136 113 88 46 26 2 342 335 329 337 330 326 328 323 320 315 314 311 312 312 312 314 315 316 316 315 312 309 308 308 308 304 303 299 290 283 282 282 284
193 188 174 233 176 43 126 195 195 242 276 308 269 157 139 99 236 251 269 257 250 237 218 231 244 248 247 248 219 177 168 136 87 86 164 166 159 154 156 171 176 175 184 189 172 160 154 125 93 69 44 21 358 340 338 340 342 335 324 322 316 315 315 314 313 311 315 315 316 317 317 319 315 313 311 308 308 307 305 305 292 287 288 284 281 273
183 179 177 228 152 227 207 205 235 322 319 289 278 205 152 190 170 184 249 274 255 215 213 223 240 245 243 241 138 106 108 103 114 215 255 168 171 165 162 168 169 181 172 155 142 145 122 99 84 70 56 12 353 340 353 349 342 329 322 322 319 318 317 321 318 318 318 315 315 315 313 313 311 308 310 310 310 309 309 304 295 291 285 276 275 274
186 197 196 210 225 207 239 251 263 263 259 269 246 319 179 208 180 169 227 274 274 179 201 206 231 238 228 124 133 130 129 102 199 230 203 199 168 151 133 143 144 143 138 136 128 122 96 85 78 71 62 11 354 6 360 350 338 332 324 322 323 326 326 323 318 318 317 312 310 309 312 313 312 307 309 312 311 310 305 297 294 291 301 300 302 294
211 259 195 207 225 151 224 230 236 243 247 249 76 357 140 114 123 107 78 277 259 165 201 198 218 225 176 150 146 144 127 191 228 212 171 174 172 159 148 149 146 143 138 144 143 109 92 85 85 95 51 33 9 7 1 347 342 335 329 327 328 327 321 320 319 321 318 315 315 313 312 311 312 311 310 311 311 312 313 313 316 316 314 309 305 301
189 194 148 220 228 222 221 229 240 211 253 266 135 134 163 119 106 107 359 269 3 179 176 184 203 186 163 153 152 165 166 204 227 213 162 169 166 160 156 154 150 145 136 124 93 96 101 103 82 52 36 27 11 6 355 351 348 338 329 326 324 322 320 320 320 314 314 312 311 310 310 311 311 311 312 311 312 316 317 318 317 317 315 314 308 300
183 170 193 210 218 227 223 245 287 276 257 154 148 153 158 122 93 89 231 255 150 163 187 168 198 163 150 155 164 173 211 207 158 125 149 145 140 147 135 138 142 149 145 116 104 102 93 83 76 53 32 22 12 7 359 359 348 334 328 324 322 319 319 319 316 316 314 312 310 310 309 311 311 312 313 312 314 316 319 321 320 318 317 314 308 307
266 136 328 261 233 227 216 232 239 274 263 145 169 156 152 108 153 234 248 128 157 182 201 183 171 169 162 171 185 197 138 110 126 128 139 158 162 151 139 132 127 112 99 103 106 100 93 90 75 54 30 36 16 19 4 1 341 328 329 326 317 316 320 318 318 316 314 311 310 309 311 311 313 312 311 315 318 321 322 322 321 318 316 314 313 310
180 160 194 204 200 41 137 231 329 270 254 146 144 138 182 165 233 210 106 178 158 179 168 193 170 179 169 182 179 129 129 128 138 149 152 152 150 150 150 155 148 139 128 114 90 91 104 99 89 55 37 17 20 18 2 357 336 329 328 319 314 320 320 319 318 316 313 310 308 311 312 313 316 318 319 321 323 323 325 324 324 323 320 321 319 317
153 149 202 221 167 179 184 198 208 222 138 150 145 179 189 215 202 139 142 165 198 164 180 162 192 178 181 163 151 148 144 136 130 142 143 145 148 142 145 141 127 112 103 99 112 115 103 99 80 56 39 24 23 13 8 354 337 328 324 315 320 323 320 318 318 315 311 309 310 311 315 317 319 320 322 323 324 326 328 328 326 325 326 328 327 329
182 206 185 204 174 169 195 215 221 87 166 178 182 199 204 203 136 181 145 166 161 210 181 172 180 181 174 158 150 148 151 162 158 161 159 168 157 158 154 152 139 132 125 120 113 106 92 100 88 54 36 28 24 2 7 356 341 320 315 316 326 323 323 322 319 317 312 312 313 315 316 319 322 324 327 327 329 332 334 330 330 329 334 334 335 331
145 213 48 74 214 232 270 273 83 228 177 194 214 183 172 187 209 167 161 154 197 172 173 177 181 169 167 153 141 166 161 166 151 164 154 152 150 145 129 118 110 108 116 115 115 111 115 100 83 61 24 11 21 355 4 351 337 316 310 321 324 322 322 320 318 316 314 313 314 316 319 323 327 329 329 330 331 335 335 328 329 330 331 336 332 326
214 139 156 226 140 157 249 239 218 218 178 204 210 212 216 198 188 184 181 175 177 171 178 189 164 169 163 163 160 165 166 159 162 162 154 148 149 147 145 136 132 138 138 131 131 120 103 98 84 67 37 7 355 356 354 337 326 311 314 321 320 322 320 316 313 311 312 315 315 317 323 330 334 335 334 336 336 338 338 333 331 334 334 336 333 322
261 171 169 225 217 184 244 251 327 224 204 205 204 206 219 205 198 202 191 178 171 176 178 176 157 154 155 166 168 157 162 166 154 158 158 160 153 153 146 144 137 127 127 125 121 118 119 110 118 96 82 9 338 355 342 329 317 313 316 317 323 319 318 315 315 315 313 315 318 322 329 334 335 337 334 338 338 339 341 335 333 338 340 338 330 320
131 124 215 188 206 233 257 264 218 41 274 230 218 222 213 198 188 188 191 182 163 162 161 149 168 162 168 172 161 153 149 174 167 163 158 152 149 151 151 143 142 135 134 128 126 126 129 132 128 125 121 18 343 358 327 316 310 313 323 324 323 321 319 316 316 313 312 316 323 326 333 337 337 337 337 338 339 335 333 325 334 337 337 339 335 343
130 207 189 112 215 236 225 235 196 193 242 227 211 215 207 196 179 177 173 169 170 164 158 155 157 167 171 160 157 153 162 169 167 155 158 161 159 149 139 135 135 131 126 122 118 123 119 127 131 145 129 32 17 344 317 310 311 316 318 320 322 323 319 318 316 315 319 322 325 328 336 339 338 340 338 341 339 338 323 331 346 351 351 346 349 352
195 208 173 197 212 235 231 237 210 205 228 238 209 203 194 186 176 174 183 180 180 171 164 156 147 145 151 176 165 158 164 165 167 158 146 151 150 149 145 142 140 137 137 134 129 129 130 138 141 134 123 114 48 326 301 304 310 314 320 326 328 324 316 313 313 315 317 326 328 336 341 336 338 341 340 341 341 340 336 329 326 350 2 1 356 356